COSMOS 970 DEB, 14443

Orbit data source: Space-Track

COSMOS 970 DEB, 14443 is space debris in LEO originally from a launch on Wed, 21 Dec 1977 UTC launched from the Tyuratam Missile And Space Complex (TTMTR). Debris objects in space refer to the collection of defunct objects orbiting the Earth. Examples of debris include non-operational satellites, rocket bodies, and fragments generated from explosions, collisions, or faulty payload assembly.

Loading next visibility...
Identifier
14443, 1977-121BF
Orbit
LEO
Country
Flag of CISCIS
Related business
Manufacturer
Unknown
Mission
Spacecraft
Bus & Motor
Unknown
Mass
Unknown
Launch date (UTC)
1977-12-21 (48 years ago)
Launch vehicle
Unknown
Launch site
Tyuratam Missile And Space Complex (TTMTR)
Object type
Payload
Rocket body
Debris
Shape & HBR
Unknown shape, 0.1 m
Radar Cross Section
Medium (>0.1 m² and <1 m²)

Expand to show TLE details & history
Last TLE update: 13 hours ago

TLE from 13 hours ago
0 COSMOS 970 DEB
1 14443U 77121BF  26171.43609367  .00005874  00000-0  99762-3 0  9999
2 14443  65.5756 300.7296 0090986 180.5366 179.5660 14.67232786336585
Epoch: 2026-06-20T10:27Z
TLE epoch observation values (Epoch: 2026-06-20T10:27:58.493Z)
Latitude
0.00002°
Longitude
-124.91486°
Altitude
736.101 km
Speed
7.453 km/s
True Right ascension
20h 02m 55s
True Declination
0° 00' 00"
Sunlit
Object was in full shadow at epoch
Visualization orbit readout
Latitude
Unknown
Longitude
Unknown
Altitude
Unknown
Speed
Unknown
Apparent Right ascension
Unknown
Apparent Declination
Unknown
Sunlit
N/A
Visualization observer readout
Local Sidereal Time
10:12:24
Azimuth
Unknown
Elevation
Unknown
Doppler factor
Unknown
Orbital elements
Apogee altitude
732.512 km
Perigee altitude
604.285 km
Semi-major axis
7,046.536 km
Eccentricity
0.0091
Inclination
65.5756°
RAAN
300.7296°
Arg. of periapsis
180.5366°
True anomaly
179.57381°
Mean anomaly
179.566°
Eccentric anomaly
179.56991°
Mean motion
3.66927 °/min
Orbital period
98.11 mins
BSTAR
0.00099762
Loading maneuver chart data...
Computing Atmospheric mass density...
Loading historical data...
Loading historical data...
Loading historical data...
Loading historical data...
Loading historical data...
Loading historical data...
Loading historical data...

Documentation

Showing up to 5 results
|